User: anonymous   Login
Location: �couen
(49.0206°N, 2.3831°E)
Time: 16:29:29
(UTC+00:00)
Language:

Cosmos 2227 - Orbit

View from above orbital plane
View from above orbital plane
View from above satellite
View from above satellite

Ground track
Ground track

The orbit data is extracted from the following two-line orbital elements,

1 22284U 92093A   22023.13856396 -.00000164  00000-0 -62138-4 0  9998
2 22284  70.9783 311.4649 0018266 159.3278 200.8586 14.13340544500148
Epoch (UTC): 23 January 2022 03:19:31
Eccentricity: 0.0018266
inclination: 70.9783°
perigee height: 835 km
apogee height: 861 km
right ascension of ascending node: 311.4649°
argument of perigee: 159.3278°
revolutions per day: 14.13340544
mean anomaly at epoch: 200.8586°
orbit number at epoch: 50014

The dashed part of the orbit path shows where the satellite is in the earth's shadow,  

DLR